Temperature
18 18 18 18 18 18 18 18 18 18 18 18 18 18 18 18 18 18 18 18 18 18 18 18 18 18 18 18 18 18 19 19 18 18 18 18 18 18 18 18 18 18 18
18 18 18 18 18 18 18 18 18 18 18 18 18 18 18 18 18 18 18 18 18 18 18 18 18 18 18 18 18 18 18 18 18 18 18 18 18 18 18 18 18 18 18
18 18 18 18 18 18 18 18 18 18 18 18 18 18 18 18 18 18 18 18 18 18 18 18 18 18 18 18 18 18 18 18 18 18 18 18 18 18 18 18 18 18 18
18 18 18 18 18 18 18 18 18 18 18 18 18 18 18 18 18 18 18 18 18 18 18 18 18 18 18 18 18 18 18 18 18 17 17 17 17 18 18 18 18 18 18
18 18 18 18 18 18 18 18 18 18 18 17 17 17 18 18 18 18 17 18 17 17 17 17 18 18 18 18 18 17 17 17 17 17 17 17 17 17 17 17 17 18 18
18 18 18 18 18 18 18 18 18 18 17 17 17 17 17 17 17 17 17 17 17 17 17 17 17 17 17 17 17 17 17 17 17 17 17 17 17 17 17 17 17 17 17
18 18 18 18 18 18 18 18 18 18 17 17 17 17 17 17 17 17 17 17 17 17 17 17 17 17 17 17 17 17 17 17 17 17 17 17 17 17 17 17 17 17 17
18 18 18 18 18 18 18 18 18 18 17 17 17 17 17 17 17 17 17 17 17 17 17 17 17 17 17 17 17 17 17 17 17 17 17 17 17 17 17 17 17 17 17
19 18 18 18 18 18 18 18 18 17 17 17 17 17 17 17 17 17 17 17 17 17 17 17 17 17 17 17 17 17 17 17 17 16 17 17 17 17 17 17 17 17 17
19 18 18 18 18 18 18 17 17 17 17 17 17 17 17 17 17 17 17 17 17 17 17 17 17 17 17 17 17 17 17 17 16 16 16 16 16 16 16 16 16 16 17
19 19 19 18 18 18 17 17 17 17 17 17 17 17 17 17 17 17 17 17 17 17 17 17 17 17 17 17 17 16 16 16 16 16 16 16 16 16 16 16 16 16 16
19 19 19 18 18 18 17 17 17 17 17 17 17 17 17 16 16 16 16 16 16 16 16 16 16 17 17 16 16 16 16 16 16 16 16 16 16 16 16 16 16 16 16
19 19 19 18 18 18 17 17 17 17 17 17 17 17 17 16 16 16 16 16 16 16 16 16 16 16 16 16 16 16 16 16 16 16 16 16 16 16 16 16 16 16 16
19 19 19 19 18 18 18 17 17 17 17 17 17 17 17 17 16 16 16 16 16 16 16 16 16 16 16 16 16 16 16 16 16 16 16 16 16 16 16 16 16 16 16
19 19 19 18 18 18 18 18 17 17 17 17 17 17 17 17 16 16 16 16 16 16 16 16 16 16 16 16 16 16 16 16 16 16 16 16 16 16 16 15 15 15 15
19 19 19 18 18 18 18 18 17 17 17 17 17 17 17 17 16 16 16 16 16 16 16 16 16 16 16 16 16 16 16 15 15 15 15 15 15 15 15 15 15 15 15
20 19 19 18 18 18 18 17 17 17 17 17 17 17 17 17 16 16 16 16 16 16 16 16 16 16 16 16 16 16 16 15 15 15 15 15 15 15 15 15 15 15 15
20 19 19 18 18 18 18 17 17 17 17 17 17 17 17 16 16 16 16 16 16 16 16 16 15 15 15 15 15 15 15 15 15 15 15 15 15 15 15 15 15 15 15
20 19 19 18 18 18 18 17 17 17 17 17 17 17 17 16 16 16 16 16 16 15 15 15 15 15 15 15 15 15 15 15 15 15 15 15 15 14 14 14 14 14 14
20 19 19 18 18 18 18 17 17 17 17 16 16 16 16 16 16 16 16 15 15 15 15 15 15 15 15 15 15 15 15 15 15 15 15 15 14 14 14 14 14 14 14
19 19 19 18 18 18 17 17 17 17 16 16 16 16 16 16 16 16 15 15 15 15 15 15 15 15 15 15 15 15 15 15 15 15 15 15 14 14 14 14 14 14 14
19 19 19 18 18 18 17 17 17 17 16 16 16 16 16 16 16 15 15 15 15 15 15 15 15 14 15 15 15 15 15 15 15 15 15 14 14 14 14 14 14 14 14
19 19 18 18 18 18 17 17 17 16 16 16 16 16 16 16 16 15 15 15 15 15 15 14 14 14 14 15 15 15 15 15 15 15 14 14 14 14 14 14 13 13 13
19 18 18 18 18 17 17 17 17 16 16 16 16 15 15 15 15 15 15 15 15 15 14 14 14 14 14 14 14 14 15 15 15 14 14 14 14 14 14 13 13 13 13
18 18 18 18 18 17 17 17 17 16 16 16 16 15 15 15 15 15 15 15 15 15 14 14 14 14 14 14 14 14 14 14 15 14 14 14 14 14 14 13 13 13 13
18 18 18 17 17 17 17 17 16 16 16 16 15 15 15 15 15 15 15 15 15 14 14 14 14 14 14 14 14 14 14 14 14 14 14 14 14 14 13 13 13 13 13
Wind_Speed
7 10 11 11 11 11 12 12 12 13 13 13 12 11 11 12 13 13 13 14 14 14 14 14 14 14 13 13 13 14 14 13 13 12 13 12 12 12 11 10 10 10 11
9 11 11 11 11 12 12 12 12 13 13 12 12 12 12 12 12 13 13 13 14 14 14 14 13 13 13 13 13 13 12 12 11 11 12 12 12 11 12 12 11 10 12
10 11 11 11 12 12 12 12 12 13 13 12 12 12 12 12 12 12 13 13 14 14 13 13 13 13 13 13 13 12 11 10 9 9 9 9 10 12 12 12 12 12 12
10 11 11 11 11 11 11 12 12 12 13 12 12 12 12 12 12 12 13 13 13 13 13 13 13 13 13 13 12 11 10 10 10 9 8 9 10 12 12 12 11 12 12
11 13 12 11 11 11 11 11 12 12 12 12 12 11 11 12 12 13 13 13 13 13 13 12 12 13 13 12 11 10 10 10 11 10 9 10 11 13 13 12 12 12 12
11 13 12 11 11 11 11 11 11 11 11 11 11 12 12 12 13 13 13 13 12 12 12 12 12 12 12 11 11 10 10 10 10 9 8 10 10 12 12 12 12 12 11
10 13 12 11 11 11 11 11 10 10 10 11 11 11 12 12 12 13 13 13 13 13 12 12 12 11 11 10 10 9 9 8 8 8 9 10 11 12 12 12 11 11 11
9 12 12 12 12 12 12 11 10 10 10 10 10 11 11 12 12 13 13 13 12 12 11 11 11 10 10 9 9 8 9 10 9 10 10 11 12 12 12 11 11 12 12
8 8 10 12 11 11 11 10 10 10 9 9 9 9 10 11 12 12 13 12 12 11 11 10 10 9 8 7 7 7 9 11 10 8 10 10 12 12 12 12 12 12 11
7 6 7 10 11 11 11 10 9 9 8 7 7 8 9 10 11 11 12 11 11 10 9 8 8 7 7 6 6 6 8 9 10 11 10 10 12 12 12 11 11 11 11
6 4 5 6 7 8 9 9 9 8 7 6 6 7 6 6 8 9 10 9 9 8 7 6 5 5 4 3 4 5 6 7 10 10 10 11 12 12 12 12 12 11 11
5 5 5 5 6 6 6 7 6 6 6 5 5 7 5 6 7 8 9 7 6 5 5 4 3 4 2 1 3 4 5 9 9 9 10 12 11 11 11 11 11 11 11
6 5 4 4 5 5 4 5 4 4 4 4 5 7 7 6 6 6 5 5 5 4 2 2 1 1 2 4 4 5 7 8 9 10 10 13 12 11 11 11 11 12 11
6 5 4 4 5 5 6 4 5 3 2 3 3 6 5 3 3 3 3 3 3 3 2 2 1 2 3 4 5 6 7 8 9 9 11 13 13 12 12 12 11 11 11
7 6 5 4 5 5 5 3 4 3 3 4 3 5 6 3 3 3 3 2 2 3 2 2 3 3 4 5 5 6 5 7 9 9 9 12 12 12 11 11 10 10 10
7 6 6 4 4 5 5 3 3 3 4 4 3 4 6 4 3 3 3 2 2 2 3 2 3 2 2 3 4 5 5 6 7 8 9 10 11 11 10 10 10 9 9
6 6 6 5 4 4 5 4 3 4 4 3 3 5 6 5 4 4 3 3 2 4 5 4 4 3 2 3 3 3 4 4 5 6 7 8 9 9 9 9 9 9 9
6 6 7 5 5 4 4 3 3 3 4 3 4 4 4 6 6 4 3 2 3 5 3 2 2 3 3 3 2 2 2 2 3 4 5 7 7 7 8 8 8 8 8
6 6 7 6 5 4 4 3 3 3 3 3 4 3 4 5 6 4 2 2 4 3 2 2 3 2 2 2 1 1 2 2 2 3 3 5 6 8 8 8 8 7 8
5 6 6 6 5 4 3 3 2 3 2 3 3 3 4 4 5 5 2 2 4 2 2 2 2 2 1 1 1 2 1 1 1 1 2 4 4 6 7 7 7 7 7
5 5 5 5 4 4 3 2 3 2 2 2 2 3 3 4 5 4 2 2 3 2 2 2 2 2 1 1 2 1 1 1 2 1 2 2 3 4 5 6 6 6 6
5 4 5 5 5 5 3 2 2 2 1 2 2 2 2 3 4 2 2 2 2 2 2 2 2 1 2 2 1 1 0 2 2 1 2 2 2 2 2 4 5 6 6
4 4 4 5 5 5 5 2 2 2 2 2 2 1 1 2 3 2 2 2 2 2 1 1 1 1 1 2 1 1 1 0 1 1 1 2 2 1 1 2 4 6 6
5 4 4 4 5 5 5 4 3 3 2 2 2 1 1 2 3 2 2 2 1 1 1 1 1 1 1 1 2 1 0 1 1 0 2 1 2 2 1 2 4 5 7
6 4 4 5 5 5 4 4 3 3 2 2 2 2 1 1 2 2 1 0 0 1 1 1 1 1 0 1 1 1 1 1 1 1 1 1 1 1 2 2 3 4 6
6 5 4 5 5 5 5 5 5 4 3 2 2 3 2 1 1 2 2 1 1 1 1 1 1 1 1 1 1 1 0 0 1 0 0 0 0 0 1 2 3 3 5
Wind_Direction
80 82 73 70 67 67 67 64 61 60 61 63 65 70 73 73 73 72 72 72 71 72 70 68 65 62 63 62 62 65 65 66 70 75 78 80 79 77 75 77 79 79 87
90 87 77 72 70 70 70 67 64 62 62 64 64 71 74 75 75 75 75 75 73 73 73 69 66 65 66 66 64 64 63 65 70 74 78 75 75 74 74 73 73 79 85
91 92 83 76 74 73 72 69 66 64 64 65 67 69 71 74 76 77 77 77 75 75 74 72 69 68 68 65 62 59 59 60 63 69 72 78 79 74 75 76 77 79 83
93 89 85 83 79 76 74 72 70 69 68 66 67 71 74 76 77 77 79 80 79 76 74 73 71 69 67 63 58 54 53 49 52 59 63 67 74 77 75 76 79 79 79
93 91 90 87 83 79 76 74 75 73 71 71 71 72 76 78 77 77 78 81 80 77 74 74 74 71 67 63 59 53 50 48 52 56 63 67 72 77 74 73 75 77 77
99 99 98 94 90 87 82 79 78 77 75 75 77 76 77 78 79 78 79 80 76 74 73 73 74 71 68 64 60 54 49 52 54 62 65 72 75 77 77 75 75 76 77
104 108 109 105 101 96 90 85 82 80 77 79 80 79 79 81 82 80 79 77 74 73 73 73 73 71 67 62 56 50 50 50 71 70 66 72 77 79 77 77 77 78 77
109 114 118 117 110 102 95 90 87 86 84 83 82 81 82 83 84 82 82 79 78 77 76 74 71 71 68 62 55 50 44 45 66 70 74 74 79 80 79 80 78 79 78
105 114 129 132 124 113 107 103 97 94 91 91 91 89 89 89 87 84 82 79 77 77 77 76 73 69 69 66 60 52 47 48 53 61 70 74 78 79 78 79 78 78 79
108 113 121 130 133 131 125 119 117 114 109 106 108 105 102 102 99 93 87 86 83 81 81 81 78 70 65 68 68 52 51 56 60 58 64 70 77 80 80 80 80 80 79
101 110 107 115 119 122 124 126 134 137 131 128 129 119 110 111 107 98 95 94 90 88 86 82 79 78 70 65 70 64 58 74 74 67 64 70 74 79 83 83 82 81 79
115 100 102 109 117 118 115 130 138 135 140 139 126 121 111 101 101 102 112 108 104 97 86 80 78 80 79 77 79 76 76 78 78 76 68 72 74 78 82 84 84 82 79
118 109 105 103 108 109 113 125 121 115 126 123 119 119 112 111 113 114 120 119 122 115 104 101 85 31 64 65 70 80 79 79 77 74 70 73 75 77 80 82 83 81 78
117 109 98 99 99 101 103 111 118 116 113 100 92 103 100 100 103 104 100 108 117 105 90 84 77 51 48 61 73 71 73 81 83 83 75 76 76 75 77 79 80 79 77
123 123 107 89 94 99 98 110 111 115 114 104 86 104 108 107 113 109 106 96 82 83 81 59 56 51 40 39 56 65 66 85 94 93 86 80 78 76 76 76 77 78 77
131 129 116 107 98 102 106 99 103 107 99 99 94 92 98 94 101 102 99 91 79 72 66 66 68 60 56 46 47 54 61 73 95 106 104 92 84 81 78 76 76 76 77
131 125 119 121 107 100 98 99 102 101 100 102 93 94 94 90 89 89 85 81 71 69 58 45 46 44 60 66 58 53 60 67 86 101 112 113 101 89 87 83 80 78 78
125 126 125 128 116 108 100 98 100 98 98 95 84 81 92 91 80 83 83 80 78 70 62 53 45 38 34 48 47 47 66 55 82 103 112 118 117 107 99 94 88 85 83
135 135 133 126 124 115 108 112 98 100 97 97 87 75 79 92 95 89 77 80 78 70 58 50 57 39 44 47 68 69 78 61 55 82 93 109 119 125 120 109 103 96 88
140 133 130 130 135 121 113 105 81 81 84 88 85 75 59 74 96 102 91 82 81 75 70 68 73 30 24 351 27 65 98 118 82 79 90 99 110 122 129 129 128 111 96
138 140 140 138 136 121 109 106 106 97 89 88 93 85 61 59 72 88 84 73 82 81 66 52 61 36 355 358 49 35 0 92 110 132 95 85 83 98 113 119 121 123 114
143 150 145 138 133 124 125 125 125 130 118 102 94 88 69 65 68 76 102 100 96 93 67 56 57 33 341 356 47 75 37 0 356 116 111 120 95 88 84 102 115 117 113
151 151 146 141 135 132 129 119 104 95 84 88 94 98 84 76 76 60 56 84 106 118 115 103 96 89 343 325 2 83 96 180 290 316 194 130 122 100 76 77 95 107 107
157 147 149 143 140 136 134 131 136 142 168 165 153 153 176 126 101 75 66 73 96 103 115 186 103 100 61 315 328 348 312 127 131 312 325 66 130 132 126 94 89 101 105
151 151 154 147 140 138 143 151 173 168 181 159 142 137 137 136 127 129 104 108 138 130 145 139 99 98 174 250 302 322 350 3 298 148 222 298 6 150 134 111 104 101 105
148 150 155 153 146 152 164 171 185 174 171 148 141 145 165 166 174 176 181 184 177 177 179 157 129 175 220 272 309 315 142 220 266 185 218 231 197 277 115 105 108 114 114
Height
1514 1512 1511 1511 1510 1510 1509 1509 1509 1509 1508 1508 1508 1509 1509 1510 1510 1511 1511 1511 1512 1512 1512 1512 1512 1512 1512 1512 1512 1512 1512 1512 1512 1512 1513 1513 1514 1515 1516 1516 1517 1517 1518
1514 1513 1513 1512 1511 1511 1511 1511 1511 1511 1510 1510 1510 1510 1511 1512 1512 1513 1513 1513 1514 1514 1514 1514 1514 1514 1514 1514 1514 1515 1515 1515 1515 1515 1515 1516 1516 1517 1517 1517 1518 1518 1518
1515 1514 1513 1513 1513 1513 1513 1513 1513 1513 1512 1512 1513 1513 1513 1513 1514 1514 1515 1515 1515 1516 1516 1516 1516 1516 1516 1517 1517 1517 1517 1517 1517 1517 1518 1518 1518 1518 1519 1519 1519 1520 1520
1516 1515 1515 1514 1514 1514 1514 1515 1514 1514 1514 1515 1515 1515 1515 1515 1516 1516 1516 1517 1517 1517 1518 1518 1518 1518 1518 1519 1519 1519 1519 1519 1520 1520 1520 1520 1520 1520 1520 1521 1521 1521 1521
1517 1516 1516 1515 1515 1515 1516 1516 1516 1516 1516 1517 1517 1517 1517 1517 1518 1518 1518 1519 1519 1519 1520 1520 1520 1520 1520 1521 1521 1521 1521 1521 1521 1521 1521 1522 1522 1522 1522 1522 1522 1523 1523
1518 1517 1517 1517 1517 1517 1517 1517 1518 1518 1518 1518 1519 1519 1519 1519 1519 1520 1520 1520 1521 1521 1522 1522 1522 1522 1522 1523 1523 1523 1523 1523 1523 1523 1523 1523 1523 1523 1523 1523 1524 1524 1524
1520 1519 1519 1519 1519 1519 1519 1519 1519 1520 1520 1520 1520 1521 1521 1521 1521 1522 1522 1522 1523 1523 1523 1523 1524 1524 1524 1524 1525 1525 1525 1525 1525 1525 1524 1523 1524 1524 1525 1525 1525 1525 1526
1521 1521 1520 1520 1520 1520 1520 1520 1521 1521 1521 1522 1522 1522 1523 1523 1523 1524 1524 1524 1524 1525 1525 1525 1526 1526 1526 1526 1526 1527 1527 1527 1527 1526 1525 1524 1525 1526 1526 1526 1527 1527 1527
1522 1522 1522 1521 1521 1521 1522 1522 1522 1522 1523 1523 1524 1524 1525 1525 1525 1526 1526 1526 1526 1527 1527 1528 1528 1528 1528 1528 1528 1529 1529 1528 1528 1528 1528 1527 1528 1528 1528 1528 1528 1528 1528
1524 1524 1523 1523 1523 1523 1523 1523 1523 1524 1524 1525 1525 1526 1527 1527 1527 1528 1528 1528 1528 1529 1529 1529 1530 1530 1530 1530 1530 1530 1530 1530 1530 1530 1530 1530 1530 1529 1529 1529 1529 1530 1530
1524 1525 1525 1525 1524 1524 1524 1524 1524 1525 1526 1527 1527 1528 1528 1529 1529 1530 1530 1530 1530 1531 1531 1531 1531 1532 1532 1532 1532 1532 1532 1532 1531 1531 1531 1532 1531 1531 1531 1531 1531 1531 1531
1525 1526 1526 1526 1525 1524 1524 1524 1525 1526 1527 1528 1529 1530 1530 1531 1531 1531 1532 1532 1532 1533 1533 1533 1533 1533 1533 1534 1534 1534 1533 1533 1533 1533 1533 1533 1533 1532 1532 1532 1532 1532 1532
1525 1526 1526 1526 1526 1525 1524 1524 1525 1527 1529 1530 1531 1531 1532 1532 1533 1533 1533 1533 1533 1534 1534 1534 1535 1535 1535 1535 1535 1535 1535 1535 1534 1534 1534 1534 1534 1534 1534 1534 1534 1534 1534
1526 1526 1527 1527 1527 1526 1525 1525 1527 1528 1530 1531 1532 1533 1533 1534 1534 1534 1535 1535 1535 1535 1536 1536 1536 1536 1537 1537 1537 1537 1537 1536 1536 1536 1536 1536 1535 1535 1535 1535 1535 1535 1535
1526 1527 1527 1528 1527 1527 1527 1527 1529 1530 1531 1532 1533 1534 1534 1535 1535 1536 1536 1536 1536 1537 1537 1537 1537 1538 1538 1538 1538 1538 1538 1538 1537 1537 1537 1537 1536 1536 1536 1536 1536 1536 1536
1525 1527 1527 1528 1528 1528 1528 1529 1530 1531 1532 1533 1534 1535 1536 1536 1536 1537 1537 1537 1537 1538 1538 1538 1538 1539 1539 1539 1539 1539 1539 1539 1538 1538 1538 1538 1538 1537 1537 1537 1537 1537 1537
1525 1526 1527 1528 1529 1529 1530 1530 1531 1532 1533 1534 1535 1536 1536 1537 1537 1537 1538 1538 1539 1539 1539 1539 1539 1539 1539 1539 1539 1540 1540 1540 1539 1539 1539 1539 1538 1538 1538 1538 1538 1538 1537
1525 1526 1527 1528 1529 1530 1531 1531 1532 1533 1534 1534 1535 1536 1537 1537 1537 1538 1538 1539 1539 1539 1539 1539 1539 1540 1540 1540 1540 1540 1540 1540 1540 1540 1540 1539 1539 1539 1539 1539 1539 1539 1538
1524 1526 1527 1528 1529 1530 1531 1532 1533 1534 1534 1535 1536 1536 1537 1537 1538 1538 1538 1539 1539 1539 1540 1540 1540 1540 1540 1540 1540 1540 1540 1541 1541 1541 1541 1540 1540 1540 1540 1539 1539 1539 1539
1524 1525 1526 1527 1529 1530 1531 1532 1533 1534 1534 1535 1536 1536 1537 1537 1538 1538 1539 1539 1539 1539 1540 1540 1540 1540 1540 1540 1540 1540 1541 1541 1541 1541 1541 1541 1541 1541 1540 1540 1540 1539 1539
1522 1524 1525 1527 1528 1529 1530 1531 1532 1533 1534 1535 1536 1536 1537 1537 1538 1538 1539 1539 1539 1539 1539 1539 1540 1540 1540 1540 1540 1540 1541 1541 1541 1541 1541 1541 1541 1541 1541 1540 1540 1539 1539
1521 1523 1524 1525 1527 1528 1529 1530 1531 1532 1533 1534 1535 1535 1536 1536 1537 1537 1538 1538 1538 1538 1538 1539 1539 1539 1539 1540 1540 1540 1540 1542 1541 1541 1541 1541 1541 1541 1541 1540 1540 1539 1539
1519 1521 1522 1524 1525 1527 1528 1529 1530 1531 1532 1533 1534 1534 1535 1536 1536 1536 1537 1537 1537 1538 1538 1538 1538 1538 1539 1539 1540 1540 1540 1540 1541 1541 1541 1541 1541 1541 1541 1541 1540 1539 1539
1517 1519 1520 1522 1524 1525 1526 1528 1529 1530 1531 1531 1532 1533 1534 1534 1534 1535 1535 1536 1536 1536 1537 1537 1537 1538 1538 1538 1539 1539 1540 1540 1540 1540 1541 1541 1541 1540 1540 1540 1540 1539 1539
1515 1517 1519 1520 1522 1523 1524 1526 1527 1528 1529 1530 1531 1532 1532 1533 1533 1533 1534 1534 1535 1535 1535 1535 1536 1536 1537 1537 1537 1538 1538 1539 1539 1539 1539 1540 1540 1540 1540 1540 1539 1539 1539
1512 1515 1517 1518 1520 1521 1522 1524 1526 1527 1528 1529 1529 1530 1530 1531 1531 1532 1532 1532 1533 1533 1534 1534 1534 1535 1535 1536 1536 1537 1537 1537 1537 1538 1538 1538 1538 1539 1539 1539 1538 1538 1538